Location: Iesi
(43.5167°N, 13.2333°E)
Time: 03:18:22
(UTC+00:00)

USA 234 - Pass Details

Date: 08 August 2020
Orbit: 1101 x 1107 km, 123.0° (Epoch: 27 September)

Event Time Altitude Azimuth Distance (km) Brightness Sun altitude
Exits shadow 20:17:25 26° 114° (ESE) 2,005 4.1 -18.4°
Maximum altitude 20:21:19 73° 36° (NE) 1,151 3.3 -18.9°
Drops below altitude 10° 20:27:50 10° 313° (NW) 2,964 6.7 -19.7°
Sets 20:30:20 0° 312° (NW) 3,924 7.7 -20.0°
